| time (UTC) | temp F | wind direction | speed MPH | gust MPH | rain 1hr in | rain 24hr in | rain mn in | humidity % | barometer mb |
| 20260903201503 | 75 | 140 | 1.0 | 3.0 | 0.00 | 0.11 | 0.11 | 77 | 1012.2 |
| 20260903200026 | 75 | 147 | 1.0 | 3.0 | 0.00 | 0.11 | 0.11 | 77 | 1012.3 |
| 20260903194600 | 75 | 139 | 0.0 | 3.0 | 0.00 | 0.11 | 0.11 | 78 | 1012.6 |
| 20260903193030 | 74 | 132 | 1.0 | 4.0 | 0.00 | 0.11 | 0.11 | 79 | 1012.8 |
| 20260903191605 | 73 | 94 | 0.0 | 4.0 | 0.00 | 0.11 | 0.11 | 80 | 1012.9 |
| 20260903190022 | 73 | 55 | 1.0 | 5.0 | 0.00 | 0.11 | 0.11 | 79 | 1012.9 |
| 20260903184505 | 74 | 26 | 0.0 | 4.0 | 0.00 | 0.11 | 0.11 | 78 | 1013.2 |
| 20260903183028 | 72 | 26 | 1.0 | 4.0 | 0.00 | 0.11 | 0.11 | 80 | 1013.4 |
| 20260903181601 | 72 | 47 | 3.0 | 5.0 | 0.00 | 0.11 | 0.11 | 81 | 1013.4 |
| 20260903180024 | 72 | 324 | 2.0 | 4.0 | 0.00 | 0.11 | 0.11 | 81 | 1013.6 |
| 20260903174505 | 71 | 317 | 2.0 | 4.0 | 0.00 | 0.11 | 0.11 | 81 | 1013.7 |
| 20260903173025 | 71 | 271 | 2.0 | 6.0 | 0.00 | 0.11 | 0.11 | 81 | 1014.0 |
| 20260903171607 | 71 | 355 | 1.0 | 6.0 | 0.00 | 0.11 | 0.11 | 80 | 1014.0 |
| 20260903170017 | 73 | 259 | 2.0 | 5.0 | 0.00 | 0.11 | 0.11 | 79 | 1013.7 |
| 20260903164550 | 70 | 17 | 2.0 | 4.0 | 0.00 | 0.11 | 0.11 | 83 | 1013.7 |
| 20260903163103 | 69 | 75 | 2.0 | 5.0 | 0.00 | 0.11 | 0.11 | 83 | 1013.9 |
| 20260903161545 | 70 | 9 | 3.0 | 6.0 | 0.00 | 0.11 | 0.11 | 83 | 1013.9 |
| 20260903160058 | 69 | 9 | 1.0 | 5.0 | 0.00 | 0.11 | 0.11 | 85 | 1013.9 |
| 20260903154505 | 68 | 355 | 1.0 | 5.0 | 0.00 | 0.11 | 0.11 | 88 | 1014.1 |
| 20260903153026 | 67 | 5 | 0.0 | 3.0 | 0.00 | 0.11 | 0.11 | 89 | 1014.3 |
| 20260903151602 | 66 | 355 | 0.0 | 2.0 | 0.00 | 0.11 | 0.11 | 88 | 1014.5 |
| 20260903150020 | 66 | 360 | 1.0 | 3.0 | 0.00 | 0.11 | 0.11 | 89 | 1014.7 |
| 20260903144504 | 66 | 355 | 1.0 | 3.0 | 0.00 | 0.11 | 0.11 | 90 | 1014.8 |
| 20260903143024 | 65 | 348 | 0.0 | 2.0 | 0.00 | 0.11 | 0.11 | 91 | 1014.7 |
| 20260903141609 | 65 | 309 | 1.0 | 2.0 | 0.00 | 0.11 | 0.11 | 91 | 1014.7 |
| 20260903140016 | 64 | 222 | 0.0 | 3.0 | 0.00 | 0.11 | 0.11 | 91 | 1015.2 |
| 20260903134606 | 64 | 222 | 0.0 | 2.0 | 0.00 | 0.11 | 0.11 | 92 | 1015.3 |
| 20260903133015 | 64 | 222 | 0.0 | 3.0 | 0.00 | 0.11 | 0.11 | 93 | 1015.1 |
| 20260903131608 | 63 | 204 | 0.0 | 2.0 | 0.00 | 0.11 | 0.11 | 92 | 1015.0 |
| 20260903130003 | 63 | 204 | 0.0 | 1.0 | 0.00 | 0.11 | 0.11 | 93 | 1015.2 |
| 20260903124544 | 63 | 204 | 0.0 | 2.0 | 0.00 | 0.11 | 0.11 | 93 | 1015.3 |
| 20260903123105 | 63 | 204 | 0.0 | 2.0 | 0.00 | 0.11 | 0.11 | 93 | 1015.5 |
| 20260903121553 | 63 | 178 | 0.0 | 2.0 | 0.00 | 0.11 | 0.11 | 94 | 1015.6 |
| 20260903120050 | 62 | 194 | 0.0 | 2.0 | 0.00 | 0.11 | 0.11 | 93 | 1015.7 |
| 20260903114505 | 62 | 194 | 0.0 | 2.0 | 0.01 | 0.11 | 0.11 | 93 | 1016.0 |
| 20260903113041 | 62 | 194 | 0.0 | 0.0 | 0.01 | 0.11 | 0.11 | 93 | 1016.1 |
| 20260903111509 | 62 | 194 | 0.0 | 1.0 | 0.01 | 0.11 | 0.11 | 93 | 1016.0 |
| 20260903110043 | 62 | 194 | 0.0 | 1.0 | 0.01 | 0.11 | 0.11 | 93 | 1016.0 |
| 20260903104537 | 62 | 194 | 0.0 | 2.0 | 0.01 | 0.10 | 0.10 | 93 | 1016.1 |
| 20260903103047 | 62 | 195 | 0.0 | 1.0 | 0.02 | 0.10 | 0.10 | 92 | 1016.0 |
| 20260903101601 | 62 | 195 | 0.0 | 1.0 | 0.04 | 0.10 | 0.10 | 92 | 1016.1 |
| 20260903100013 | 62 | 195 | 0.0 | 2.0 | 0.05 | 0.10 | 0.10 | 92 | 1015.9 |
| 20260903094539 | 62 | 195 | 0.0 | 1.0 | 0.04 | 0.09 | 0.09 | 91 | 1016.1 |
| 20260903093107 | 62 | 195 | 0.0 | 1.0 | 0.04 | 0.08 | 0.08 | 91 | 1016.3 |
| 20260903091520 | 62 | 195 | 0.0 | 1.0 | 0.02 | 0.06 | 0.06 | 90 | 1016.4 |
| 20260903090059 | 62 | 195 | 0.0 | 1.0 | 0.04 | 0.05 | 0.05 | 90 | 1016.4 |
| 20260903084518 | 62 | 195 | 0.0 | 2.0 | 0.04 | 0.04 | 0.04 | 89 | 1016.4 |
| 20260903083100 | 63 | 189 | 1.0 | 2.0 | 0.04 | 0.04 | 0.04 | 87 | 1016.3 |
| 20260903081507 | 64 | 189 | 1.0 | 3.0 | 0.04 | 0.04 | 0.04 | 84 | 1016.6 |
| 20260903080053 | 65 | 178 | 3.0 | 6.0 | 0.01 | 0.01 | 0.01 | 80 | 1016.5 |
| 20260903074609 | 65 | 117 | 1.0 | 7.0 | 0.00 | 0.00 | 0.00 | 79 | 1016.3 |
| 20260903073055 | 65 | 166 | 2.0 | 7.0 | 0.00 | 0.00 | 0.00 | 79 | 1016.6 |
| 20260903071506 | 65 | 180 | 1.0 | 5.0 | 0.00 | 0.00 | 0.00 | 79 | 1016.7 |
| 20260903070040 | 65 | 172 | 0.0 | 8.0 | 0.00 | 0.00 | 0.00 | 79 | 1016.7 |
| 20260903064604 | 65 | 144 | 0.0 | 4.0 | 0.00 | 0.00 | 0.00 | 80 | 1017.1 |
| 20260903063048 | 65 | 136 | 2.0 | 5.0 | 0.00 | 0.00 | 0.00 | 80 | 1017.6 |
| 20260903061502 | 65 | 121 | 2.0 | 4.0 | 0.00 | 0.00 | 0.00 | 80 | 1018.1 |
| 20260903060059 | 65 | 186 | 2.0 | 5.0 | 0.00 | 0.00 | 0.00 | 80 | 1018.6 |
| 20260903054505 | 65 | 185 | 3.0 | 8.0 | 0.00 | 0.00 | 0.00 | 80 | 1018.8 |
| 20260903053043 | 65 | 174 | 2.0 | 7.0 | 0.00 | 0.00 | 0.00 | 81 | 1018.9 |
| 20260903051608 | 65 | 115 | 2.0 | 8.0 | 0.00 | 0.00 | 0.00 | 81 | 1018.7 |
| 20260903050037 | 65 | 171 | 2.0 | 8.0 | 0.00 | 0.00 | 0.00 | 82 | 1018.6 |
| 20260903044503 | 65 | 161 | 2.0 | 3.0 | 0.00 | 0.00 | 0.00 | 83 | 1019.0 |
| 20260903043028 | 65 | 168 | 1.0 | 3.0 | 0.00 | 0.00 | 0.00 | 83 | 1019.3 |
| 20260903041601 | 65 | 94 | 1.0 | 4.0 | 0.00 | 0.00 | 0.00 | 83 | 1019.1 |
| 20260903040011 | 65 | 151 | 0.0 | 3.0 | 0.00 | 0.00 | 0.00 | 84 | 1019.1 |
| 20260903034541 | 65 | 151 | 0.0 | 3.0 | 0.00 | 0.00 | 0.00 | 83 | 1019.1 |
| 20260903033054 | 65 | 153 | 0.0 | 3.0 | 0.00 | 0.00 | 0.00 | 83 | 1019.5 |
| 20260903031542 | 65 | 153 | 1.0 | 3.0 | 0.00 | 0.00 | 0.00 | 83 | 1019.6 |
| 20260903030052 | 65 | 153 | 0.0 | 3.0 | 0.00 | 0.00 | 0.00 | 82 | 1019.8 |
| 20260903024600 | 65 | 150 | 0.0 | 2.0 | 0.00 | 0.00 | 0.00 | 82 | 1020.0 |
| 20260903023032 | 65 | 151 | 0.0 | 1.0 | 0.00 | 0.00 | 0.00 | 81 | 1020.0 |
| 20260903021558 | 66 | 146 | 0.0 | 4.0 | 0.00 | 0.00 | 0.00 | 81 | 1019.9 |
| 20260903020034 | 66 | 115 | 1.0 | 3.0 | 0.00 | 0.00 | 0.00 | 80 | 1020.1 |
| 20260903014631 | 66 | 180 | 0.0 | 6.0 | 0.00 | 0.00 | 0.00 | 80 | 1020.4 |
| 20260903013021 | 66 | 121 | 2.0 | 6.0 | 0.00 | 0.00 | 0.00 | 79 | 1020.3 |
| 20260903011607 | 66 | 122 | 3.0 | 7.0 | 0.00 | 0.00 | 0.00 | 78 | 1019.8 |
| 20260903010015 | 66 | 154 | 1.0 | 7.0 | 0.00 | 0.00 | 0.00 | 78 | 1020.0 |
| 20260903004600 | 66 | 170 | 3.0 | 10.0 | 0.00 | 0.00 | 0.00 | 78 | 1020.0 |
| 20260903003011 | 67 | 136 | 3.0 | 10.0 | 0.00 | 0.00 | 0.00 | 77 | 1020.0 |
| 20260903001556 | 67 | 181 | 3.0 | 7.0 | 0.00 | 0.00 | 0.00 | 77 | 1020.1 |
| 20260903000005 | 67 | 103 | 3.0 | 7.0 | 0.00 | 0.00 | 0.00 | 76 | 1020.2 |
| 20260902234552 | 68 | 135 | 1.0 | 3.0 | 0.00 | 0.00 | 0.00 | 75 | 1020.6 |
| 20260902233007 | 68 | 148 | 1.0 | 4.0 | 0.00 | 0.00 | 0.00 | 73 | 1020.8 |
| 20260902231554 | 68 | 128 | 2.0 | 4.0 | 0.00 | 0.00 | 0.00 | 72 | 1020.9 |
| 20260902230001 | 68 | 123 | 1.0 | 4.0 | 0.00 | 0.00 | 0.00 | 70 | 1020.8 |
| 20260902224556 | 69 | 129 | 1.0 | 6.0 | 0.00 | 0.00 | 0.00 | 70 | 1020.7 |
| 20260902223018 | 69 | 188 | 1.0 | 6.0 | 0.00 | 0.00 | 0.00 | 69 | 1021.2 |
| 20260902221540 | 69 | 145 | 1.0 | 9.0 | 0.00 | 0.00 | 0.00 | 68 | 1021.3 |
| 20260902220110 | 70 | 123 | 3.0 | 8.0 | 0.00 | 0.00 | 0.00 | 65 | 1021.1 |
| 20260902214552 | 70 | 151 | 3.0 | 9.0 | 0.00 | 0.00 | 0.00 | 63 | 1020.9 |
| 20260902213057 | 70 | 88 | 3.0 | 9.0 | 0.00 | 0.00 | 0.00 | 62 | 1021.0 |
| 20260902211527 | 71 | 80 | 3.0 | 10.0 | 0.00 | 0.00 | 0.00 | 62 | 1020.9 |
| 20260902210051 | 71 | 161 | 5.0 | 11.0 | 0.00 | 0.00 | 0.00 | 62 | 1020.5 |
| 20260902204605 | 71 | 133 | 2.0 | 7.0 | 0.00 | 0.00 | 0.00 | 61 | 1021.0 |
| 20260902203023 | 72 | 146 | 3.0 | 10.0 | 0.00 | 0.00 | 0.00 | 61 | 1021.1 |